Temp
10 10 9 9 9 9 9 9 9 9 9 8 8 8 7 7 7 6 6 6 6 6 6 5 5 5 5 6 6 6 5 5 5 5 5 5 5 5 4 4 4 4
10 10 9 9 9 9 9 9 9 9 9 8 8 8 7 7 7 6 6 6 6 6 6 5 5 5 5 6 6 5 5 5 5 5 5 5 5 4 4 4 4 4
10 10 10 9 9 9 9 9 9 9 9 8 8 8 8 7 7 7 6 6 6 6 6 6 5 5 5 5 5 5 5 5 5 5 5 5 5 5 4 4 4 4
10 10 10 10 9 9 9 9 9 9 9 8 8 8 8 7 7 7 6 6 6 6 6 6 6 5 5 5 5 5 5 5 5 5 5 5 5 4 4 4 4 4
10 10 10 10 10 9 9 9 9 8 8 8 8 8 8 7 7 7 7 6 6 6 6 6 6 5 5 5 5 5 5 5 5 5 5 5 5 4 4 4 4 4
10 10 10 10 10 9 9 9 9 8 8 8 8 8 8 7 7 7 7 6 6 6 6 6 6 6 6 6 6 6 5 5 5 5 5 5 5 4 4 4 4 4
10 10 10 10 10 10 9 9 9 9 8 8 8 8 8 7 7 7 7 6 6 6 6 6 6 6 6 6 6 6 6 5 5 5 5 5 5 5 4 4 4 4
11 11 11 10 10 10 9 9 9 9 8 8 8 8 8 8 7 7 7 7 6 6 6 6 6 6 6 6 6 6 6 5 5 5 5 5 5 5 4 4 4 4
10 11 11 11 10 10 10 9 9 9 9 8 8 8 8 8 7 7 7 7 6 6 6 6 6 6 6 6 6 6 6 5 5 5 5 5 5 5 4 4 4 4
10 11 11 11 10 10 10 10 9 9 9 8 8 8 8 8 7 7 7 7 7 6 6 7 6 6 6 6 6 6 6 5 5 5 5 5 5 5 5 5 4 4
10 11 11 11 11 10 10 10 9 9 9 8 8 8 8 8 8 7 7 7 7 6 6 7 6 6 6 6 6 6 6 5 5 5 5 5 5 5 5 5 4 4
10 11 11 11 11 11 10 10 10 9 9 8 8 8 8 8 8 8 8 8 7 6 6 7 7 6 6 6 6 6 6 6 5 5 5 5 5 5 5 5 4 4
11 11 11 11 11 11 10 10 10 9 9 8 8 8 8 8 8 8 8 7 7 6 6 7 7 6 7 7 6 6 6 6 5 5 5 5 5 5 5 5 4 4
11 11 11 11 11 10 10 10 10 9 9 9 8 8 8 8 7 7 7 7 7 6 6 7 7 7 7 7 6 6 6 6 5 5 5 5 5 5 5 5 5 4
10 11 11 11 11 10 10 10 10 9 9 9 8 8 8 8 7 7 7 7 7 6 6 7 7 7 7 7 6 6 6 6 5 5 5 5 5 5 5 5 5 4
10 10 11 11 11 10 10 10 10 9 9 9 8 8 7 7 7 7 7 7 7 7 6 7 7 7 7 7 6 6 6 5 5 5 5 5 5 5 5 5 4 4
10 10 11 11 11 10 10 10 10 9 9 9 8 8 7 7 7 7 7 7 7 7 6 7 7 7 7 6 6 6 6 5 5 5 5 5 5 5 5 4 4 4
10 10 10 11 10 10 10 10 10 9 9 9 8 8 7 8 8 7 7 7 7 7 7 7 7 7 7 7 6 6 6 5 5 5 5 5 5 5 4 4 4 4
10 10 10 10 10 10 10 10 10 9 9 9 9 8 7 8 8 7 7 7 7 7 7 7 7 7 7 7 6 6 6 5 5 5 5 5 5 4 4 4 4 4
10 10 10 10 10 10 10 10 10 10 9 9 8 8 8 8 8 7 7 7 7 7 7 7 7 7 7 7 6 6 6 5 5 5 5 5 5 5 4 4 4 4
10 10 10 10 10 10 10 10 10 10 9 9 8 8 8 8 8 7 7 7 7 7 7 6 7 6 6 6 6 6 6 5 5 5 5 5 5 5 5 4 4 4
10 10 10 10 10 10 10 10 10 10 9 9 8 8 8 8 8 7 7 7 7 7 7 6 6 6 6 6 6 6 6 5 5 5 5 5 5 5 5 4 4 4
10 10 10 10 10 10 10 10 10 10 9 9 8 8 8 8 8 7 7 7 7 7 7 6 6 6 6 6 6 6 6 5 5 5 5 5 5 4 4 4 4 4
10 11 10 10 10 10 10 10 10 10 10 9 8 8 8 8 8 7 7 7 7 7 7 6 6 6 6 6 6 6 6 5 5 4 4 4 4 4 4 4 4 4
10 10 11 10 10 10 10 10 10 10 9 9 8 8 8 8 7 7 7 7 7 7 7 6 6 6 6 6 6 6 6 5 5 4 4 4 4 4 4 4 4 4
10 10 11 11 11 11 10 10 10 10 9 9 9 8 8 8 7 7 7 7 7 7 7 6 6 6 6 6 6 6 5 5 5 4 4 4 4 4 4 4 4 4
Height
3143 3145 3147 3149 3150 3150 3151 3151 3152 3152 3152 3153 3154 3154 3155 3156 3157 3157 3158 3158 3158 3158 3158 3158 3159 3159 3160 3160 3161 3161 3161 3161 3161 3162 3162 3162 3163 3163 3163 3163 3163 3164
3139 3141 3143 3145 3146 3148 3148 3149 3149 3150 3150 3151 3151 3151 3152 3153 3153 3154 3155 3155 3156 3155 3156 3156 3156 3157 3157 3158 3159 3159 3159 3159 3159 3159 3160 3160 3160 3161 3161 3161 3161 3162
3135 3137 3139 3141 3143 3145 3146 3147 3147 3147 3148 3148 3148 3148 3149 3150 3150 3151 3152 3153 3153 3153 3153 3154 3154 3154 3155 3155 3156 3156 3156 3157 3157 3157 3158 3158 3158 3159 3159 3159 3159 3160
3131 3133 3136 3138 3139 3141 3143 3144 3145 3145 3145 3146 3146 3146 3147 3147 3147 3148 3149 3150 3150 3150 3151 3151 3151 3152 3152 3153 3153 3154 3154 3154 3155 3155 3155 3156 3156 3156 3157 3157 3157 3157
3128 3130 3131 3133 3135 3137 3139 3141 3142 3142 3142 3143 3143 3143 3144 3144 3144 3145 3146 3147 3148 3148 3148 3149 3149 3149 3150 3150 3151 3151 3152 3152 3152 3153 3153 3153 3154 3154 3154 3154 3155 3155
3123 3125 3127 3129 3130 3132 3135 3137 3138 3138 3139 3140 3140 3140 3140 3141 3141 3142 3143 3144 3145 3145 3146 3146 3146 3147 3147 3147 3148 3149 3149 3150 3150 3150 3151 3151 3151 3151 3152 3152 3152 3152
3119 3121 3123 3124 3126 3128 3130 3132 3134 3135 3136 3137 3137 3137 3137 3138 3138 3139 3140 3141 3142 3143 3143 3143 3144 3144 3144 3145 3146 3146 3147 3147 3148 3148 3148 3148 3149 3149 3149 3149 3149 3150
3115 3116 3118 3120 3121 3124 3126 3128 3130 3131 3132 3133 3134 3134 3134 3135 3135 3136 3137 3138 3139 3140 3141 3141 3141 3141 3142 3142 3143 3144 3145 3145 3145 3145 3146 3146 3146 3146 3147 3147 3147 3147
3110 3111 3113 3115 3117 3119 3122 3123 3125 3127 3128 3129 3130 3131 3131 3132 3132 3133 3134 3135 3136 3137 3138 3138 3138 3138 3139 3140 3141 3141 3142 3142 3143 3143 3143 3143 3144 3144 3144 3145 3145 3145
3104 3106 3109 3111 3114 3116 3118 3119 3121 3123 3124 3125 3127 3128 3128 3129 3129 3130 3131 3132 3133 3134 3135 3135 3135 3136 3137 3137 3138 3138 3139 3140 3140 3140 3141 3141 3141 3142 3142 3142 3142 3142
3100 3102 3105 3107 3110 3112 3114 3115 3116 3118 3120 3122 3123 3124 3125 3126 3126 3127 3127 3128 3129 3130 3131 3132 3133 3133 3134 3134 3135 3135 3136 3137 3137 3138 3138 3139 3139 3139 3139 3140 3140 3140
3096 3098 3101 3104 3106 3108 3109 3111 3112 3114 3116 3117 3119 3120 3121 3122 3123 3123 3124 3125 3126 3127 3128 3129 3130 3130 3130 3131 3132 3132 3133 3134 3135 3135 3136 3136 3136 3137 3137 3137 3137 3137
3092 3095 3097 3100 3101 3103 3104 3106 3107 3109 3111 3113 3114 3116 3117 3119 3119 3120 3121 3122 3123 3124 3125 3126 3127 3127 3127 3128 3128 3129 3130 3131 3132 3132 3133 3133 3134 3134 3134 3134 3134 3134
3089 3091 3093 3095 3096 3098 3100 3101 3103 3104 3106 3108 3110 3111 3113 3115 3115 3116 3117 3118 3119 3120 3121 3122 3123 3124 3124 3124 3125 3127 3127 3128 3129 3129 3130 3130 3131 3131 3131 3131 3132 3131
3084 3086 3088 3090 3092 3093 3095 3096 3098 3100 3101 3103 3106 3107 3109 3110 3111 3112 3113 3114 3115 3116 3117 3118 3120 3120 3121 3121 3123 3124 3125 3126 3126 3126 3127 3127 3128 3128 3128 3129 3129 3129
3078 3080 3083 3085 3087 3089 3090 3092 3093 3095 3097 3099 3101 3103 3104 3106 3107 3108 3109 3110 3111 3112 3113 3115 3116 3117 3117 3118 3120 3121 3122 3122 3123 3123 3124 3124 3125 3125 3126 3126 3126 3126
3072 3075 3078 3080 3082 3084 3085 3087 3088 3090 3092 3094 3096 3098 3100 3101 3102 3103 3105 3106 3107 3108 3109 3111 3113 3114 3114 3115 3116 3117 3118 3119 3120 3120 3121 3121 3122 3123 3123 3123 3124 3123
3067 3070 3073 3075 3077 3079 3081 3082 3084 3085 3087 3089 3092 3094 3095 3096 3098 3099 3101 3102 3103 3104 3105 3108 3109 3110 3111 3111 3113 3114 3115 3116 3117 3117 3118 3118 3119 3120 3120 3120 3121 3121
3062 3065 3068 3071 3073 3074 3076 3077 3079 3081 3083 3084 3087 3089 3090 3091 3093 3095 3096 3098 3099 3100 3102 3104 3106 3107 3107 3108 3109 3110 3111 3112 3113 3114 3115 3116 3116 3117 3117 3118 3118 3118
3057 3060 3063 3066 3068 3069 3071 3073 3074 3076 3078 3080 3082 3084 3085 3087 3089 3091 3093 3094 3095 3097 3098 3100 3102 3103 3103 3104 3106 3107 3108 3109 3110 3111 3112 3113 3113 3114 3114 3114 3115 3115
3051 3054 3058 3061 3062 3064 3066 3068 3070 3072 3074 3075 3077 3079 3081 3083 3085 3087 3089 3090 3091 3093 3094 3096 3097 3099 3100 3101 3102 3103 3104 3106 3107 3108 3109 3109 3110 3110 3111 3111 3111 3111
3046 3049 3052 3055 3057 3059 3062 3064 3066 3068 3069 3070 3072 3074 3076 3078 3080 3083 3085 3086 3087 3089 3090 3092 3093 3095 3096 3097 3099 3100 3101 3102 3104 3105 3105 3106 3106 3107 3107 3107 3108 3108
3041 3044 3047 3050 3052 3055 3058 3060 3062 3063 3064 3066 3068 3069 3071 3073 3076 3079 3081 3082 3083 3084 3086 3087 3089 3091 3093 3094 3095 3096 3097 3098 3100 3101 3101 3102 3102 3103 3103 3103 3104 3104
3034 3038 3041 3044 3047 3050 3053 3056 3057 3058 3060 3062 3064 3065 3067 3070 3073 3075 3076 3077 3078 3080 3082 3083 3085 3087 3089 3090 3091 3092 3093 3095 3096 3097 3097 3097 3098 3098 3099 3100 3100 3101
3027 3031 3035 3039 3042 3046 3049 3051 3052 3054 3056 3058 3060 3061 3064 3066 3068 3069 3071 3072 3074 3076 3077 3079 3081 3083 3085 3086 3087 3089 3090 3091 3092 3092 3092 3093 3094 3095 3096 3096 3097 3098
3021 3025 3029 3034 3038 3041 3044 3046 3048 3049 3051 3054 3056 3058 3060 3061 3063 3064 3066 3068 3070 3072 3073 3074 3076 3079 3080 3082 3084 3085 3086 3087 3087 3088 3089 3090 3091 3092 3092 3093 3094 3095
Wind_Speed
37 35 33 31 30 28 25 23 22 21 20 22 25 27 27 26 25 24 25 25 26 25 25 25 24 24 23 23 22 21 21 20 19 18 18 18 19 19 20 21 21 21
39 37 35 34 32 30 28 25 23 22 21 21 25 27 28 28 27 27 27 27 26 25 24 24 24 24 24 23 22 22 21 21 20 19 19 19 19 20 21 21 21 21
40 39 37 36 33 31 30 27 24 23 22 22 25 27 28 29 29 29 28 27 26 25 24 23 23 23 24 23 23 22 21 21 21 20 20 20 20 20 21 21 21 21
41 40 39 38 36 33 31 29 27 25 24 23 24 26 28 30 30 30 29 27 26 25 24 23 23 23 24 24 24 23 22 22 21 21 21 21 21 21 21 21 21 21
41 40 40 40 39 36 33 30 29 28 26 25 24 25 28 31 31 31 30 28 27 25 24 23 23 24 24 24 24 24 23 22 22 22 22 21 21 21 21 21 22 22
41 41 41 41 41 39 36 32 30 30 29 26 25 25 28 31 32 31 30 28 27 25 24 24 24 25 24 25 25 24 23 23 22 22 22 22 22 21 22 22 22 22
40 40 42 43 42 41 39 36 32 31 30 29 26 26 28 31 32 31 30 30 28 26 24 24 25 26 25 25 26 25 24 23 23 23 23 23 22 22 22 22 22 22
38 40 43 43 42 41 40 39 36 32 31 31 29 27 28 31 31 31 31 31 30 27 25 25 26 26 26 26 25 25 24 24 23 23 23 23 23 23 23 22 22 22
39 42 43 42 41 39 38 39 38 34 32 32 31 29 29 31 31 30 31 33 31 29 26 26 27 27 26 26 25 25 24 24 24 24 24 24 23 23 23 22 22 22
40 43 43 40 39 38 37 38 38 36 34 33 33 32 30 31 31 30 31 33 33 31 28 27 28 27 26 26 25 25 25 25 25 25 25 24 24 23 23 23 23 23
40 42 43 40 38 37 37 36 37 37 35 34 34 34 32 32 32 30 31 32 33 32 29 28 28 28 27 26 25 26 26 26 26 26 26 25 24 24 23 23 23 23
39 40 41 40 37 37 36 36 36 36 35 34 35 36 35 33 32 31 30 31 34 33 30 29 28 28 27 27 26 26 27 26 26 26 26 26 25 24 24 24 23 23
40 39 40 40 38 37 36 35 35 35 35 35 36 37 37 34 32 31 30 31 34 35 32 30 29 29 28 27 27 27 27 27 27 27 27 27 25 24 24 24 24 24
41 40 41 41 41 38 35 34 34 34 35 36 37 38 38 36 33 31 30 32 35 36 34 32 30 30 29 28 28 27 27 27 27 28 28 27 26 25 25 25 24 25
41 42 42 43 43 38 34 34 35 36 37 37 38 39 40 38 35 32 31 33 35 36 36 33 31 30 30 29 28 27 27 27 28 28 29 28 27 27 26 25 25 25
41 42 42 43 42 38 35 35 37 38 39 39 39 40 41 39 37 34 32 33 35 37 37 34 32 31 30 30 29 28 28 28 28 29 29 29 28 27 26 26 25 25
43 42 43 42 40 38 36 36 38 39 40 41 41 41 42 41 38 36 33 33 35 38 38 36 32 32 31 30 30 29 29 29 29 29 30 29 28 27 27 26 26 26
46 43 43 42 40 36 34 34 36 39 41 42 42 42 42 41 39 37 34 33 34 38 39 36 33 32 33 32 30 30 30 30 29 30 30 29 28 28 27 26 26 26
48 45 43 42 40 36 33 33 35 38 42 43 42 42 43 42 39 37 34 32 34 38 39 37 34 33 34 33 31 31 31 31 30 30 30 29 29 28 27 27 27 26
51 48 45 44 43 39 37 35 35 38 42 43 42 43 43 42 39 37 34 32 33 37 39 38 35 35 35 34 31 31 32 31 31 30 30 30 29 28 28 27 27 27
54 50 47 46 45 42 39 37 36 38 42 42 43 43 43 42 40 38 35 32 32 36 39 39 37 36 36 34 32 31 32 32 31 30 30 30 29 29 28 28 28 27
55 52 50 49 47 43 41 39 37 39 42 43 43 43 43 42 39 37 35 32 32 35 38 40 39 37 37 34 32 32 33 32 31 31 31 30 29 29 28 28 28 28
57 55 53 51 49 47 44 41 38 40 42 43 43 43 43 41 38 36 35 33 33 35 38 40 40 38 36 35 33 32 32 31 31 32 32 31 30 29 28 28 29 29
58 59 56 54 53 50 46 43 40 40 42 43 43 43 42 39 35 34 34 34 33 35 38 41 40 38 37 35 34 33 31 31 32 34 35 33 31 30 29 29 29 29
56 58 58 57 55 50 47 45 41 39 41 42 42 41 39 36 34 33 33 33 32 34 38 41 41 38 37 35 34 33 31 31 34 37 37 34 32 30 29 28 29 29
52 52 53 53 52 48 46 44 40 39 41 41 40 38 37 35 34 33 33 33 32 33 38 42 41 39 37 35 34 34 32 33 36 38 38 36 33 31 29 28 29 29
Wind_Direction
244 243 242 244 245 242 239 237 234 234 237 237 237 238 237 239 241 242 247 252 257 262 265 266 263 261 261 261 260 262 266 266 263 259 257 255 253 253 254 257 259 261
244 244 243 243 245 244 242 238 233 233 237 237 237 238 236 236 238 240 246 252 257 261 264 266 263 261 261 261 261 263 266 266 264 260 258 258 257 256 256 257 259 261
242 243 244 244 245 246 245 241 233 232 235 235 238 240 237 236 238 241 246 252 256 260 263 263 262 261 261 261 260 262 266 266 264 260 259 259 259 258 258 258 258 260
241 242 244 245 245 246 246 243 237 234 236 237 239 241 238 237 238 241 245 249 254 259 262 262 261 261 261 260 259 261 265 266 263 261 259 259 260 259 258 258 259 261
239 240 243 246 247 245 245 245 240 237 236 238 240 240 238 237 238 241 245 248 252 257 260 260 259 260 260 258 257 259 263 265 264 261 260 261 261 260 260 260 261 263
237 238 239 243 246 246 246 245 244 241 237 238 240 240 239 238 238 241 244 247 251 254 257 258 258 258 259 257 256 259 262 265 264 261 260 261 262 262 261 261 262 265
235 235 236 240 244 245 245 245 245 244 240 239 241 241 239 239 239 241 243 246 249 252 256 257 257 257 258 257 257 259 263 264 264 261 260 260 261 262 262 262 263 266
234 233 234 237 240 243 244 244 245 246 243 240 240 241 241 239 240 241 243 245 247 250 254 255 256 257 257 258 258 260 263 264 263 261 259 259 260 261 261 260 262 265
232 231 232 234 238 241 243 244 245 246 245 242 239 241 241 240 241 242 243 245 246 248 251 253 255 256 257 258 258 260 263 264 262 260 257 258 260 261 260 259 261 265
231 228 230 234 237 241 244 245 245 245 246 243 239 240 242 240 241 242 243 245 246 247 249 252 254 255 256 257 257 260 262 262 260 258 256 257 259 261 260 259 262 266
228 226 229 235 239 241 244 246 246 245 245 243 239 239 241 241 240 242 244 246 247 247 248 251 253 254 255 255 255 258 260 261 259 256 255 256 258 260 260 261 263 266
227 226 230 236 239 241 243 245 245 245 245 242 238 238 240 241 241 242 244 247 247 246 247 249 251 252 253 254 254 256 259 260 258 256 254 255 257 259 260 261 263 266
229 229 232 236 239 241 242 243 243 243 244 241 237 237 238 240 241 242 245 247 246 245 246 248 249 251 253 253 254 254 258 260 258 256 254 254 256 258 260 262 264 266
230 231 233 235 239 242 243 242 240 240 241 239 236 235 237 239 240 242 244 245 245 244 245 247 248 250 252 253 253 253 256 259 257 255 253 253 254 256 258 261 264 266
229 231 233 236 239 241 241 239 237 236 236 235 233 233 235 237 239 242 243 244 244 243 244 246 247 249 252 252 252 252 254 257 256 254 252 252 253 255 258 261 264 266
230 230 232 235 238 240 240 237 234 233 232 232 231 230 233 236 237 240 243 243 242 242 243 245 245 248 251 251 251 251 252 255 255 253 252 252 253 254 257 260 263 265
232 231 231 234 237 240 240 237 235 233 230 229 228 228 231 234 236 239 242 243 242 241 242 243 244 247 249 250 250 250 250 253 254 253 252 252 253 255 257 260 262 264
232 230 231 234 237 239 239 238 236 232 229 228 226 225 229 233 235 237 241 244 242 240 241 242 243 244 247 249 249 248 249 252 253 253 253 254 254 255 256 259 261 263
232 231 231 233 236 238 240 242 240 233 228 226 224 223 228 232 234 236 240 243 242 240 240 242 242 242 246 248 248 248 248 250 253 254 255 255 256 256 257 259 261 263
232 231 230 232 236 239 242 247 245 234 228 225 223 223 227 232 233 235 239 243 243 240 239 240 240 241 244 247 248 249 249 249 252 254 255 257 258 258 258 259 260 262
232 232 231 231 236 240 244 249 246 233 225 224 222 223 227 232 233 234 236 240 241 240 238 238 239 240 242 246 247 249 249 249 250 253 256 258 259 259 259 259 259 260
233 233 232 232 236 240 245 250 245 231 223 223 222 223 228 231 232 233 237 240 242 239 237 237 238 238 241 245 246 247 248 249 249 252 254 256 259 260 260 259 259 260
234 234 233 234 237 240 245 249 241 228 224 223 221 223 228 232 233 233 237 243 243 239 236 236 237 238 240 243 244 246 248 248 248 250 252 254 257 259 260 260 260 260
231 232 232 234 236 239 245 245 236 228 226 223 221 225 230 233 233 234 239 244 243 238 236 235 237 238 240 242 244 245 247 246 245 247 249 250 252 255 258 261 262 262
227 228 230 232 235 239 242 239 232 229 227 223 222 227 231 232 234 236 242 245 242 236 233 234 235 237 239 242 244 245 246 244 243 245 246 248 251 254 258 262 265 265
223 224 227 231 235 236 235 232 230 228 224 222 225 228 230 233 236 238 242 244 241 234 231 233 234 235 238 242 243 243 243 243 244 245 246 247 248 251 257 263 267 267